Weather Roundup
Issued by NWS Chicago, IL

Home | Current Version | Previous Version | Text Only | Print | Product List | Glossary On
Versions: 1 2 3 4 5 6 7 8 9 10 11 12 13 14 15 16 17 18 19 20 21 22 23 24 25 26 27 28 29 30 31 32 33 34 35 36 37 38 39 40 41 42 43 44 45 46 47 48 49 50
000
NZUS59 KLOT 212308
HRRLOT

CHICAGO AREA WEATHER ROUNDUP
NATIONAL WEATHER SERVICE CHICAGO/ROMEOVILLE IL
500 PM CST SAT JAN 21 2017

NOTE: "FAIR" INDICATES FEW OR NO CLOUDS BELOW 12,000 FEET WITH NO
SIGNIFICANT WEATHER AND/OR OBSTRUCTIONS TO VISIBILITY.

* THESE STATIONS ARE NOT UNDER NWS QUALITY CONTROL. THEY ALSO MAY NOT
  REPORT WEATHER SUCH AS PRECIPITATION OR FOG.

ILZ005-006-012>014-019>023-220000-
NORTHEAST ILLINOIS

CITY           SKY/WX    TMP DP  RH WIND       PRES   REMARKS
OHARE          PTCLDY    54  43  66 SW10      29.50R
MIDWAY         PTCLDY    56  42  59 SW9       29.51R
AURORA         CLEAR     52  44  74 SW6       29.51R
LANSING*       PTCLDY    55  50  82 SW7       29.52R
JOLIET*        CLEAR     56  45  67 CALM      29.52R
WAUKEGAN       CLEAR     50  42  74 SW10      29.49R
DUPAGE AIRPORT CLEAR     50  41  71 SW7       29.50R
WHEELING       CLEAR     54  42  64 SW8       29.51R
KANKAKEE*      MOCLDY    55  49  81 W3        29.53S
MORRIS*        CLEAR     53  44  71 CALM      29.51R
LEWIS AIRPORT* CLEAR     52  47  81 SW7       29.52R
NORTHERLY ISL    N/A     57  44  62 S7          N/A
$$

WIZ051-052-058>065-066-070>072-220000-
SOUTHEAST WISCONSIN

CITY           SKY/WX    TMP DP  RH WIND       PRES   REMARKS
MILWAUKEE      PTCLDY    51  42  71 SW7       29.48R
KENOSHA*       CLEAR     51  42  71 SW6       29.49R
RACINE*        CLEAR     50  42  74 SW7       29.50R
WAUKESHA       PTCLDY    46  41  81 SW7       29.48R
WEST BEND      FOG       41  41 100 CALM      29.48R VSB<1/4
$$

INZ001>003-010>013-019-020-220000-
NORTHWEST INDIANA

CITY           SKY/WX    TMP DP  RH WIND       PRES   REMARKS
GARY*          PTCLDY    59  46  63 SW9       29.52R
MICHIGAN CITY* NOT AVBL
RENSSELAER*    NOT AVBL
VALPARAISO     MOCLDY    57  51  80 SW8       29.53R
$$

LMZ740>746-220000-
SOUTHERN LAKE MICHIGAN

STATION/POSITION TIME  SKY/WX   TEMP WIND        PRES    VSBY
                                AIR  DIR/SP/G
                 (UTC)          (F)  (DEG/KT/KT) (MB)    (MI)
HARRISON CRIB    2240            59  220/ 14/ 16   N/A
BURNHAM HARBOR   2300            56  220/  6/ 12   N/A
CALUMET HARBOR   2242                200/ 10/ 13  998.9R
BURNS HARBOR     2240            57  230/  9/ 11 1000.3R
MICHIGAN CITY    2240            59  190/ 10/ 11   N/A
$$

ABBREVIATIONS USED IN REMARKS
   TC - TEMPERATURE IN CELSIUS
  WCI - WIND CHILL INDEX
   HX - HEAT INDEX
  VSB - VISIBILITY
$$




USA.gov is the U.S. government's official web portal to all federal, state and local government web resources and services.